Terug naar catalogus

CZ-4 DEB

ActiefPO
NORAD 26122·DEBRIS·🇨🇳 China

Gelanceerd Oct 14, 1999 vanaf Taiyuan Satellite Launch Center

Loading…

Volgende Passages (komende 24 uur)

TLE

VersSource: Space-Track

Epoch: Sep 14, 2026, 14:46 UTC

1 26122U 99057J   26257.61577502  .00001742  00000-0  13552-2 0  9990
2 26122  98.9456  11.8886 0525224 193.1411 181.8756 13.43347432291998

Volg CZ-4 DEB in realtime met AllMySat

Download on the App Store